Orbital Elements at Epoch 2459000.5 (2020-May-31.0) TDB
Reference: JPL 9 (heliocentric ecliptic J2000)
Element | Value | Uncertainty (1-sigma) | Units |
e | .203163163617324 | 6.4569e-08 | |
a | 2.743425212616882 | 2.5263e-08 | au |
q | 2.186062267274106 | 1.8272e-07 | au |
i | 6.84278660708344 | 7.5593e-06 | deg |
node | 334.4651799518908 | 4.8399e-05 | deg |
peri | 64.78379780500015 | 5.2283e-05 | deg |
M | 272.6230368504087 | 1.9476e-05 | deg |
tp | 2459403.339975489646 (2021-Jul-07.83997549) | 9.2519e-05 | TDB |
period | 1659.732565069706 4.54 | 2.2925e-05 6.277e-08 | d yr |
n | .2169024140252864 | 2.996e-09 | deg/d |
Q | 3.300788157959657 | 3.0395e-08 | au |
|
| | Orbit Determination Parameters
Additional Information
|